"Pseudo-MPEC" for P12oAS5

Created 2026 Jul 26 18:35:03 UT using Find_Orb

Click here for an explanation of pseudo-MPECs

 
 Astrometry: 
     P12oAS5*0C2026 07 23.53962600 14 50.204+28 43 20.87   ~7NGZ 21.24wXNEOCPF51
     P12oAS5 0C2026 07 23.55205600 14 51.455+28 43 28.86   ~7NGZ 21.23wXNEOCPF51
     P12oAS5 0C2026 07 23.56453700 14 52.737+28 43 37.10   ~7NGZ 21.56wXNEOCPF51
     P12oAS5 0C2026 07 23.57704400 14 54.006+28 43 45.45   ~7NGZ 21.56wXNEOCPF51
     P12oAS5 KB2026 07 26.33894700 19 40.166+29 11 59.21   ~7Q95 21.0 GXNEOCP734
     P12oAS5 KB2026 07 26.34866900 19 41.186+29 12 05.90   ~7Q95 20.7 GXNEOCP734
     P12oAS5 KB2026 07 26.35803200 19 42.098+29 12 12.49   ~7Q95 20.9 GXNEOCP734
     P12oAS5 0C2026 07 26.49995600 19 56.630+29 13 37.38   ~7QDZ 21.97wXNEOCPF52
     P12oAS5 0C2026 07 26.50959800 19 57.566+29 13 43.11   ~7QDZ 21.76wXNEOCPF52
     P12oAS5 0C2026 07 26.52891400 19 59.453+29 13 54.56   ~7QDZ 21.94wXNEOCPF52

Station data:
(734) Farpoint Observatory, Eskridge  (N38.890239 W96.002420)  US/Kansas.
   Observer G. Hug. 0.69-m reflector + CCD.
(F51) Pan-STARRS 1, Haleakala  (N20.707234 W156.255910)  US/Hawaii.
   Observers J. Herman, T. Lowe, P. Minguez, A. Schultz, I. Smith. Measurers
   K. Chambers, T. de Boer, J. Fairlamb, H. Gao, M. Huber, C.-C. Lin, E.
   Magnier, Y. Ramanjooloo, R. Wainscoat, R. Weryk. 1.8-m Ritchey-Chrétien +
   CCD.
(F52) Pan-STARRS 2, Haleakala  (N20.707382 W156.255910)  US/Hawaii.
   Observers J. Herman, T. Lowe, P. Minguez, A. Schultz, I. Smith. Measurers
   K. Chambers, T. de Boer, J. Fairlamb, H. Gao, M. Huber, C.-C. Lin, E.
   Magnier, Y. Ramanjooloo, R. Wainscoat, R. Weryk. 1.8-m Ritchey-Chrétien +
   CCD.

Orbital elements:  P12oAS5
   Perihelion 2026 Jul 5.386882 +/- 7.88 TT =  9:17:06.6 (JD 2461226.886882)
Epoch 2026 Jul 26.0 TT = JDT 2461247.5   Earth MOID: 0.5463      AutoNEOCP
M   6.445317994 +/- 4.0             (J2000 ecliptic)
n   0.312680402 +/- 0.102           Peri.  108.462176 +/- 6
a   2.149820868 +/- 0.466           Node   210.929010 +/- 3.3
e   0.31968685 +/- 0.116            Incl.   16.275955 +/- 1.0
P   3.15212                H 19.27  G  0.15   U 11.2
q 1.462551407 +/- 0.074    Q 2.837090330 +/- 0.864
From 10 observations 2026 July 23-26; mean residual 0".38
Residuals in arcseconds: 
260723 F51  .08-  .07+    260726 734  .40-  1.3-    260726 F52  .07-  .06+    
260723 F51  .18-  .12-    260726 734  .44+  .42-    260726 F52  .03+  .01+    
260723 F51  .09+  .06-    260726 734  .34+  .59+    
260723 F51  .17+  .12+    260726 F52  .02-  .10+    

Ephemerides (geocentric):
Date (UTC) HH   RA             Dec           delta  r     elong  mag " sig PA
---- --------  ------------   ------------  ------ ------ -----  --- --------
2026 07 26 19  00 20 25.681   +29 16 24.97  .83682 1.4726 104.9 21.4 1.99  63
2026 07 26 20  00 20 29.885   +29 16 48.84  .83662 1.4726 104.9 21.4 2.10  63
2026 07 26 21  00 20 34.087   +29 17 12.68  .83643 1.4727 104.9 21.4 2.20  62
2026 07 26 22  00 20 38.286   +29 17 36.48  .83623 1.4727 105.0 21.4 2.30  62
2026 07 26 23  00 20 42.482   +29 18 00.24  .83603 1.4728 105.0 21.4 2.41  62
2026 07 27 00  00 20 46.676   +29 18 23.96  .83584 1.4728 105.0 21.4 2.52  61
2026 07 27 01  00 20 50.868   +29 18 47.64  .83564 1.4728 105.0 21.4 2.63  61
2026 07 27 02  00 20 55.056   +29 19 11.27  .83544 1.4729 105.0 21.4 2.75  61
2026 07 27 03  00 20 59.243   +29 19 34.87  .83525 1.4729 105.1 21.4 2.86  60
2026 07 27 04  00 21 03.426   +29 19 58.43  .83505 1.4730 105.1 21.4 2.98  60
2026 07 27 05  00 21 07.608   +29 20 21.95  .83485 1.4730 105.1 21.4 3.10  60
2026 07 27 06  00 21 11.786   +29 20 45.42  .83466 1.4730 105.1 21.3 3.23  60
2026 07 27 07  00 21 15.962   +29 21 08.86  .83446 1.4731 105.1 21.3 3.35  59
2026 07 27 08  00 21 20.136   +29 21 32.26  .83426 1.4731 105.2 21.3 3.48  59
2026 07 27 09  00 21 24.306   +29 21 55.61  .83407 1.4732 105.2 21.3 3.61  59
2026 07 27 10  00 21 28.475   +29 22 18.93  .83387 1.4732 105.2 21.3 3.74  59
2026 07 27 11  00 21 32.640   +29 22 42.21  .83367 1.4732 105.2 21.3 3.87  59
2026 07 27 12  00 21 36.803   +29 23 05.44  .83348 1.4733 105.2 21.3 4.01  59
2026 07 27 13  00 21 40.964   +29 23 28.64  .83328 1.4733 105.3 21.3 4.14  58
2026 07 27 14  00 21 45.122   +29 23 51.79  .83308 1.4734 105.3 21.3 4.28  58
2026 07 27 15  00 21 49.277   +29 24 14.90  .83289 1.4734 105.3 21.3 4.43  58
2026 07 27 16  00 21 53.429   +29 24 37.98  .83269 1.4734 105.3 21.3 4.57  58
2026 07 27 17  00 21 57.579   +29 25 01.01  .83249 1.4735 105.3 21.3 4.72  58
2026 07 27 18  00 22 01.727   +29 25 24.00  .83230 1.4735 105.3 21.3 4.86  58
2026 07 27 19  00 22 05.872   +29 25 46.95  .83210 1.4736 105.4 21.3 5.01  57
2026 07 27 20  00 22 10.014   +29 26 09.86  .83190 1.4736 105.4 21.3 5.17  57
2026 07 27 21  00 22 14.153   +29 26 32.73  .83171 1.4736 105.4 21.3 5.32  57
2026 07 27 22  00 22 18.290   +29 26 55.56  .83151 1.4737 105.4 21.3 5.48  57
2026 07 27 23  00 22 22.424   +29 27 18.35  .83132 1.4737 105.4 21.3 5.64  57
2026 07 28 00  00 22 26.556   +29 27 41.10  .83112 1.4738 105.5 21.3 5.80  57
2026 07 28 01  00 22 30.685   +29 28 03.81  .83092 1.4738 105.5 21.3 5.96  57
2026 07 28 02  00 22 34.811   +29 28 26.47  .83073 1.4738 105.5 21.3 6.13  57
2026 07 28 03  00 22 38.935   +29 28 49.10  .83053 1.4739 105.5 21.3 6.29  57
2026 07 28 04  00 22 43.056   +29 29 11.68  .83033 1.4739 105.5 21.3 6.46  56
2026 07 28 05  00 22 47.175   +29 29 34.23  .83014 1.4740 105.6 21.3 6.64  56
2026 07 28 06  00 22 51.291   +29 29 56.73  .82994 1.4740 105.6 21.3 6.81  56
2026 07 28 07  00 22 55.404   +29 30 19.19  .82975 1.4741 105.6 21.3 6.99  56
2026 07 28 08  00 22 59.514   +29 30 41.61  .82955 1.4741 105.6 21.3 7.16  56
2026 07 28 09  00 23 03.622   +29 31 03.99  .82935 1.4741 105.6 21.3 7.35  56
2026 07 28 10  00 23 07.727   +29 31 26.33  .82916 1.4742 105.7 21.3 7.53  56
2026 07 28 11  00 23 11.830   +29 31 48.63  .82896 1.4742 105.7 21.3 7.71  56
2026 07 28 12  00 23 15.930   +29 32 10.89  .82877 1.4743 105.7 21.3 7.90  56
2026 07 28 13  00 23 20.027   +29 32 33.11  .82857 1.4743 105.7 21.3 8.09  56
2026 07 28 14  00 23 24.121   +29 32 55.28  .82837 1.4743 105.7 21.3 8.28  56
2026 07 28 15  00 23 28.213   +29 33 17.42  .82818 1.4744 105.8 21.3 8.47  56
2026 07 28 16  00 23 32.302   +29 33 39.51  .82798 1.4744 105.8 21.3 8.67  56
2026 07 28 17  00 23 36.389   +29 34 01.56  .82779 1.4745 105.8 21.3 8.87  55
2026 07 28 18  00 23 40.472   +29 34 23.57  .82759 1.4745 105.8 21.3 9.07  55